Theta_e
347 347 346 345 345 346 346 345 343 343 343 342 341 339 339 338 335 333 333 335 335 336 337 337 338 337 337 337 334 331 329 328 331 334 335 335 335 333 333 334 334 335 336 335 334 334 333 333 333 332 330 329 328 328 329 328 326 328 328 327 329 329 328 330 331 329 328 325 324 321 318 321 321 320 321 321 316 310 305 302 300 300 300 300 300
347 347 346 345 346 346 346 345 344 343 343 342 341 340 339 339 337 334 334 336 336 337 338 338 339 339 338 338 334 330 328 328 333 335 336 336 335 334 333 334 334 335 336 335 334 334 333 332 331 330 329 329 327 327 327 326 327 328 328 327 328 329 328 330 330 328 327 325 325 324 320 322 322 320 320 316 309 304 301 300 300 301 301 300 300
347 346 346 346 346 347 346 345 344 343 343 342 341 341 340 340 338 334 334 337 338 338 339 338 339 339 339 337 334 330 329 331 336 337 336 335 335 334 334 334 334 335 334 333 332 332 332 331 330 328 326 326 326 327 327 326 327 328 328 328 324 325 328 330 328 326 327 326 325 325 324 324 323 321 317 309 303 301 300 300 300 302 302 299 300
347 346 346 346 346 346 346 345 344 344 344 342 341 341 341 340 339 336 335 338 339 339 340 340 340 340 339 336 334 333 332 334 337 337 335 335 334 334 334 334 334 333 332 332 331 331 330 330 328 326 324 323 325 328 327 325 327 327 328 326 321 321 326 329 327 324 326 328 327 326 326 325 323 323 318 306 301 300 299 300 300 300 300 300 303
346 347 346 346 346 346 345 345 344 344 344 343 342 342 342 341 339 338 337 337 339 340 340 339 339 339 337 335 334 334 334 335 336 336 335 334 333 333 334 334 333 332 332 331 329 329 329 327 325 324 323 322 324 326 326 324 325 325 323 322 322 322 324 326 325 323 324 327 328 327 327 326 324 324 319 310 307 306 302 300 300 299 299 301 303
341 344 345 345 345 345 345 345 345 344 344 343 342 342 343 341 340 340 339 338 339 339 338 337 337 336 336 335 334 333 334 335 335 335 334 333 333 333 333 333 332 332 331 330 329 328 327 325 324 323 323 323 324 324 322 322 323 320 317 317 321 323 322 318 316 318 320 321 325 328 326 325 323 320 318 314 311 309 308 306 302 300 299 301 303
341 343 344 345 345 345 344 344 344 344 344 343 343 342 342 342 340 340 340 339 339 338 338 336 333 333 335 336 333 332 335 336 335 334 333 333 332 332 332 331 331 331 331 330 328 328 326 324 323 324 323 323 323 321 320 319 319 317 315 315 318 319 317 312 307 309 313 315 321 326 323 321 322 319 317 316 313 311 312 312 308 304 300 299 301
345 345 344 344 344 344 343 343 344 344 343 343 343 342 342 342 341 340 340 340 338 338 338 335 332 332 334 334 333 333 334 334 334 333 332 332 332 332 332 331 331 331 330 329 327 327 326 324 324 323 323 321 319 319 318 318 317 315 313 313 313 313 311 310 307 305 307 308 311 316 315 315 320 321 318 316 315 314 313 313 312 308 305 303 302
344 345 344 343 344 344 342 343 343 343 343 342 342 342 341 342 341 340 340 338 337 337 337 334 333 334 334 333 333 334 334 334 334 333 332 332 331 332 332 332 331 331 329 327 326 326 325 324 324 323 321 320 319 319 317 316 314 312 311 309 308 307 307 308 307 304 304 304 304 305 306 307 311 314 316 315 313 313 314 314 312 309 307 308 307
343 343 344 343 344 343 342 343 343 343 342 342 342 342 341 341 341 340 340 339 337 337 336 335 334 335 334 334 334 334 335 334 334 333 332 332 332 332 332 331 331 330 328 326 325 325 325 324 323 322 321 320 319 318 314 312 311 309 308 306 304 303 304 305 304 303 302 302 302 303 304 306 307 306 309 311 311 311 311 311 310 308 309 310 309
345 344 343 344 344 343 342 342 343 342 342 342 342 341 340 340 340 340 340 339 338 337 336 335 335 335 336 336 334 335 336 335 334 333 332 332 332 332 332 331 330 328 327 326 325 324 324 324 323 322 320 319 318 316 312 309 308 306 304 303 303 302 302 303 302 302 302 302 302 303 304 307 307 305 304 307 310 312 311 310 309 307 309 310 308
345 345 343 343 344 343 342 342 343 342 341 341 341 341 339 338 339 340 339 339 339 338 336 335 336 336 337 336 335 335 335 335 335 333 333 333 332 332 331 331 329 327 326 326 325 324 324 324 323 322 319 317 316 313 310 308 306 304 302 302 302 302 302 302 302 302 301 301 302 302 303 304 305 304 303 304 307 310 311 311 309 307 308 309 308
344 344 343 343 343 343 342 342 342 342 341 341 341 341 338 337 338 340 339 339 339 339 337 336 337 337 336 335 335 335 335 335 334 333 333 332 332 331 331 330 328 326 325 325 325 324 324 323 321 320 318 316 314 311 307 305 303 302 302 302 302 302 302 302 301 301 301 301 301 301 301 302 302 301 301 302 303 306 309 310 308 307 307 307 307
343 344 343 343 343 343 342 342 342 342 341 341 341 340 338 337 338 339 339 338 338 338 338 338 338 336 335 335 336 335 335 334 334 333 333 332 330 331 330 329 327 325 324 324 324 323 322 322 320 318 317 314 310 307 304 303 302 301 301 301 301 301 301 301 301 301 300 300 300 300 300 299 300 299 299 300 299 300 304 306 307 308 308 307 306
342 343 343 343 343 343 342 341 341 341 341 341 341 340 338 337 338 339 339 338 337 338 338 339 338 336 335 336 336 336 334 334 334 334 333 331 329 329 329 327 326 325 324 323 323 321 320 320 319 316 314 310 306 303 302 301 301 301 301 301 301 301 301 300 300 300 300 300 300 300 299 299 299 299 299 299 299 299 300 303 306 309 310 307 305
340 341 342 342 342 342 341 341 341 341 340 341 340 340 339 337 338 339 339 338 337 337 338 339 337 336 336 336 336 335 334 334 334 334 332 329 328 328 327 326 325 324 323 322 322 320 319 319 317 313 309 305 302 301 301 301 301 301 301 301 300 300 300 300 300 299 299 299 299 299 298 298 298 299 299 298 298 298 298 300 302 305 308 306 305
341 341 342 342 342 342 341 340 341 340 341 341 340 340 340 337 337 338 339 338 338 337 338 338 336 336 336 336 335 334 334 334 334 333 331 329 328 328 327 326 325 324 322 322 321 319 318 316 312 308 304 301 300 300 300 300 300 300 300 300 300 300 300 300 299 299 299 299 299 298 298 298 298 298 298 298 298 298 298 298 298 300 302 303 303
340 342 343 342 342 340 340 340 340 340 341 340 339 339 340 339 337 337 338 339 338 338 339 337 336 336 335 335 335 334 335 334 333 332 330 328 328 327 326 325 325 324 322 321 320 318 316 313 308 303 301 300 300 300 300 300 300 300 300 300 300 300 300 299 299 299 299 298 298 298 298 298 298 298 298 298 298 298 298 298 297 297 298 298 300
339 342 343 343 341 340 339 340 341 341 341 340 340 339 339 339 338 338 338 338 337 338 338 336 335 335 335 334 334 334 334 334 332 331 329 328 328 327 326 325 325 324 322 320 319 317 315 312 306 301 300 300 299 300 300 300 300 300 300 300 299 299 299 299 299 299 298 298 297 298 298 298 298 298 297 298 298 298 298 299 298 299 299 297 298
339 343 344 343 342 341 339 339 341 341 340 340 340 340 340 339 339 338 338 338 338 338 336 335 336 336 335 334 334 334 334 333 332 331 329 328 327 327 326 325 325 324 323 320 317 316 314 310 303 300 299 299 299 299 299 300 300 299 299 299 299 299 299 299 298 298 297 297 297 298 298 298 298 297 297 297 297 297 298 298 298 300 301 298 297
339 343 344 343 342 341 339 339 341 341 341 340 340 340 340 340 339 338 338 338 338 338 335 335 336 337 336 334 334 334 334 333 332 331 330 328 328 327 326 326 326 325 322 318 316 316 313 307 301 299 299 299 299 299 299 300 299 299 299 299 299 299 298 298 298 298 297 297 297 298 298 298 298 298 298 298 297 298 299 299 299 300 299 298 297
337 341 343 343 342 341 340 339 340 341 341 340 340 340 340 340 339 339 338 338 338 338 336 335 337 337 336 335 334 334 334 333 332 331 330 329 328 327 327 327 326 325 321 318 316 315 311 305 300 299 299 299 299 299 299 299 299 299 299 298 298 299 298 298 298 297 298 297 298 298 297 297 297 297 298 298 297 298 299 299 298 298 298 297 297
337 338 341 343 342 341 340 339 339 340 341 340 340 340 339 340 339 339 338 339 338 338 337 336 337 337 337 336 335 334 334 333 332 331 330 329 328 328 327 327 326 325 321 317 315 313 309 304 300 299 298 299 299 299 299 299 299 299 298 298 299 299 298 298 298 298 298 297 298 297 297 297 297 297 297 297 297 297 299 298 297 297 298 297 296
336 339 342 343 342 342 341 339 340 340 340 340 340 340 340 340 339 339 338 338 338 338 337 337 337 337 336 336 335 334 333 332 332 331 330 330 329 328 328 326 326 325 319 315 314 312 308 304 302 300 299 298 298 298 298 298 298 299 298 298 299 298 298 297 297 297 297 297 297 297 297 296 297 297 297 297 297 297 297 297 297 296 297 297 296
335 339 343 343 343 342 341 340 340 340 340 340 340 340 340 339 339 339 338 338 338 338 338 337 336 336 336 335 335 334 333 332 332 331 330 330 329 329 328 327 327 324 318 314 313 311 308 306 303 301 299 298 299 298 298 299 298 298 298 298 299 298 298 298 298 297 297 297 297 297 296 297 297 297 297 297 297 297 297 297 297 296 296 296 296
340 341 343 343 342 342 341 340 340 340 340 340 340 340 339 338 339 339 339 339 339 338 338 337 336 336 335 334 334 334 333 333 332 331 330 330 329 328 327 327 326 322 317 314 313 310 309 307 304 303 300 299 299 298 298 298 298 298 298 298 298 298 299 299 298 297 297 297 297 297 297 297 297 297 297 297 296 296 297 297 297 297 296 297 296
341 343 343 343 343 342 341 340 340 341 341 340 340 339 339 338 338 339 339 339 339 338 338 337 336 335 335 334 333 332 332 333 332 331 331 330 329 328 327 326 325 320 316 314 312 310 309 306 305 304 303 302 301 299 298 298 298 298 298 298 298 299 299 299 298 297 297 297 297 297 297 297 297 296 296 296 296 296 296 297 297 297 297 297 296
337 339 341 343 343 343 341 339 340 341 340 340 340 339 338 338 338 339 339 338 338 338 337 336 336 335 334 333 332 332 332 333 332 332 331 330 329 327 326 326 323 318 316 313 311 309 308 307 307 307 306 305 302 299 299 299 298 298 299 299 300 300 299 298 298 297 296 296 296 296 296 296 296 296 296 296 296 296 296 296 296 296 297 296 296
337 338 339 339 341 342 341 339 340 340 341 340 339 338 338 337 337 338 338 338 338 337 337 336 335 334 333 332 332 332 333 333 332 331 330 329 328 327 325 324 320 317 315 313 310 309 308 308 308 307 305 303 301 299 300 299 298 298 299 299 300 300 299 298 299 299 297 296 296 296 296 296 295 295 296 295 296 296 296 296 297 296 296 296 296
336 339 340 339 340 341 340 339 339 340 340 340 339 338 338 337 337 338 338 338 338 337 336 336 335 334 333 332 332 333 333 332 331 330 329 329 327 325 323 321 318 316 315 312 309 309 308 308 307 305 303 301 300 300 300 299 298 298 298 298 299 301 300 298 299 300 297 296 298 297 295 296 295 295 296 295 296 296 296 296 297 296 296 296 296
333 336 339 341 342 342 340 339 340 340 340 339 338 338 338 337 337 338 338 338 337 337 336 335 334 333 333 332 332 333 333 332 330 329 328 328 326 323 322 319 317 316 315 311 309 309 308 306 305 304 303 303 301 300 299 299 298 298 298 299 300 302 302 299 299 300 297 298 302 301 295 295 295 295 295 295 295 296 296 296 296 296 296 297 297
332 334 338 340 341 341 341 340 340 340 340 339 338 338 338 337 337 337 337 337 337 336 336 335 333 332 333 333 332 332 333 331 330 329 328 327 324 321 319 318 317 317 315 312 310 308 306 303 303 306 306 303 300 300 299 298 300 300 299 300 300 301 302 302 301 301 300 300 303 302 296 295 296 295 295 296 296 296 296 296 296 296 297 298 299
330 333 338 340 340 340 340 340 340 340 339 338 338 338 337 337 336 336 337 337 336 336 335 334 333 332 332 331 331 332 332 330 329 329 328 326 323 320 318 318 319 318 316 314 310 306 304 302 303 307 307 302 300 301 299 298 301 301 300 301 303 302 303 304 303 303 304 305 304 302 297 295 296 295 295 296 296 296 296 296 296 296 298 299 299
330 332 335 337 338 339 340 340 340 339 339 338 337 337 337 336 336 336 337 336 335 335 334 333 331 330 330 330 331 332 330 329 329 329 327 325 323 321 320 319 320 320 317 314 309 304 302 302 303 306 305 302 301 300 299 299 301 302 300 301 305 305 304 305 304 304 306 307 306 303 299 299 299 298 296 295 296 296 296 296 296 297 298 298 299
331 333 334 334 335 338 340 340 340 339 338 337 337 337 336 336 336 336 336 336 335 334 333 332 330 330 330 331 331 330 330 329 328 329 327 325 323 322 321 320 320 319 317 314 309 303 301 301 303 305 304 302 301 299 299 299 300 301 300 301 306 306 304 304 306 306 306 306 305 302 302 303 303 300 297 295 295 295 296 296 296 297 297 297 300
331 333 334 335 336 338 340 340 339 338 337 337 336 336 336 335 335 335 335 335 334 333 332 331 331 330 331 331 330 330 329 329 329 328 328 325 324 323 322 321 319 318 316 314 308 302 300 300 302 303 302 302 300 299 298 299 298 298 298 301 304 305 303 305 307 306 305 303 302 300 299 302 302 299 296 295 295 295 296 296 296 297 296 297 301
331 334 333 334 337 339 339 339 339 338 337 337 336 336 335 335 335 335 334 334 333 332 331 330 330 331 331 331 330 330 330 330 329 328 327 326 325 324 323 322 319 316 315 313 307 301 299 301 301 301 301 302 301 300 298 298 297 295 296 299 302 303 304 306 306 304 301 299 298 297 296 298 299 298 296 295 296 296 296 296 297 297 296 297 299
334 334 334 335 338 340 339 338 338 337 337 336 335 335 335 334 334 334 333 333 332 332 331 330 329 330 330 329 329 329 329 328 328 328 327 326 325 324 324 322 319 316 315 312 307 302 300 301 299 298 300 303 304 302 300 297 295 295 295 297 299 302 304 304 303 300 297 297 298 297 295 297 298 297 296 296 296 296 296 296 297 297 297 297 296
337 336 335 338 340 340 339 338 337 336 336 336 335 335 334 333 333 333 332 331 331 331 331 330 329 329 328 326 325 325 326 327 327 328 327 326 326 325 324 322 319 316 314 312 308 304 301 299 296 297 302 306 306 304 302 298 295 295 295 295 297 300 301 301 300 299 297 298 300 298 295 295 296 295 296 295 296 296 296 296 297 297 297 296 296
338 337 337 340 340 339 338 337 336 336 336 335 334 334 333 332 331 331 331 331 331 331 331 329 328 327 326 324 324 325 327 328 328 328 327 326 327 325 324 321 318 315 312 310 306 302 300 298 297 299 304 307 307 305 303 299 296 294 294 295 295 298 300 300 301 302 301 300 300 298 295 295 295 295 296 295 296 296 296 296 297 297 296 296 296
338 337 337 339 339 338 338 337 336 335 335 334 334 333 332 331 331 330 330 331 331 331 330 329 328 326 325 324 326 327 328 328 328 328 327 326 326 325 323 320 317 313 310 306 303 301 301 301 300 301 304 306 305 304 301 298 296 295 295 295 294 296 300 302 302 303 302 301 300 298 295 295 295 295 295 295 296 297 296 296 297 297 296 296 297
338 337 337 339 339 338 337 336 336 335 334 334 333 332 332 331 331 330 330 330 331 330 329 328 327 325 323 325 327 328 328 327 327 327 326 326 325 323 321 318 315 311 307 304 302 302 303 303 302 302 304 305 303 300 298 296 296 296 295 294 294 295 300 303 303 303 303 302 301 300 298 297 297 296 296 295 296 296 296 296 297 297 297 297 298
337 337 337 338 337 337 336 336 335 334 334 333 332 332 331 331 331 330 330 330 330 330 329 328 326 324 324 326 328 328 327 327 327 327 326 325 324 322 319 316 313 309 306 304 302 302 303 303 302 302 303 302 299 298 297 296 296 296 295 294 294 295 300 303 303 303 303 303 302 302 301 300 300 298 296 295 296 296 296 296 297 298 298 298 300
336 337 337 337 336 335 335 335 335 334 333 333 332 332 332 331 331 331 330 330 330 329 328 326 324 322 325 327 328 327 327 327 327 326 325 324 323 321 318 314 311 309 307 305 303 303 304 302 302 303 303 300 297 296 296 295 296 296 295 294 294 295 299 302 302 303 303 302 302 303 302 301 301 299 297 296 296 296 296 297 298 299 299 300 300
336 336 337 337 336 335 334 334 334 333 333 333 332 332 332 331 330 331 331 330 329 328 326 324 323 323 326 327 328 328 328 327 327 326 324 323 322 320 316 314 311 310 308 306 306 307 304 302 302 303 302 299 296 295 295 295 295 295 294 294 294 294 297 299 300 302 303 302 302 303 302 301 300 298 296 296 296 296 297 299 300 300 300 300 301
336 336 336 336 335 334 334 334 333 333 332 332 332 332 332 331 330 330 330 330 329 328 326 324 324 325 326 327 328 328 327 326 325 324 323 323 321 319 316 314 312 310 308 308 307 304 302 302 303 303 301 298 296 295 296 295 295 295 294 294 294 294 295 297 298 301 301 301 302 302 302 301 299 297 295 296 296 297 299 301 301 301 301 301 301
336 336 335 335 335 334 333 333 333 332 332 331 332 332 332 331 330 330 329 329 328 327 326 324 323 324 326 327 328 328 327 326 324 323 322 320 319 318 317 315 312 311 309 307 305 302 301 303 303 301 300 298 297 295 296 295 294 294 294 294 295 295 294 295 296 298 300 300 301 301 301 300 298 296 295 296 296 298 301 302 302 302 302 302 301
335 335 335 335 335 334 334 333 332 332 332 331 331 332 331 331 330 329 329 328 327 327 326 324 324 325 327 328 328 328 327 325 323 322 321 320 319 318 317 315 313 312 309 306 304 302 301 301 301 299 299 299 297 296 296 296 295 295 295 295 295 295 295 294 295 296 298 299 299 299 299 298 296 295 295 296 297 299 302 303 302 302 302 302 302
335 334 334 335 335 334 334 333 332 332 331 331 331 331 330 330 330 329 328 327 327 326 325 325 325 326 327 327 327 327 326 325 323 322 321 320 319 318 316 315 313 311 310 307 306 304 301 299 299 299 298 298 297 296 296 296 295 295 295 295 296 295 295 295 295 294 295 297 297 297 296 296 295 295 295 296 298 301 303 303 303 303 303 302 302
334 334 334 334 334 334 334 333 332 331 331 330 330 330 329 329 328 328 327 327 326 325 324 324 325 326 327 327 327 327 326 324 323 322 320 318 317 315 314 313 311 310 309 307 307 305 302 298 298 298 298 297 296 296 296 296 295 295 295 295 295 295 295 295 295 294 294 295 295 295 295 295 295 295 296 298 300 302 303 303 302 302 302 301 301
334 333 333 333 333 333 333 333 332 331 330 330 330 329 329 329 328 327 327 326 325 325 325 324 324 326 327 327 326 326 325 323 321 321 320 318 315 313 311 311 310 310 309 308 307 305 301 297 297 297 297 296 296 297 297 296 295 295 295 295 295 295 295 295 294 294 293 294 294 295 295 295 295 296 298 299 301 302 302 302 302 301 301 301 301
Wind_Speed
27 26 27 27 28 29 29 30 31 28 27 30 29 28 29 28 27 29 29 27 26 25 24 23 21 20 18 17 17 17 16 15 14 12 11 11 10 8 7 8 8 7 6 10 11 11 12 12 12 13 10 9 10 10 12 12 7 6 7 6 7 6 11 12 10 8 5 5 4 6 3 3 2 2 3 3 3 2 2 2 3 3 3 3 3
30 27 29 28 30 31 28 29 32 31 30 32 31 29 30 27 26 29 30 28 26 25 24 23 21 20 18 17 17 17 16 15 13 12 12 10 9 8 8 9 8 9 9 9 10 11 12 11 11 10 8 8 8 7 9 9 6 4 5 7 9 9 12 11 7 6 5 3 3 5 2 2 4 3 2 2 1 1 1 2 2 2 3 3 3
33 30 32 32 33 33 29 30 32 32 33 33 31 30 30 27 26 30 31 28 26 24 24 24 22 19 18 17 17 16 16 15 13 14 14 13 12 10 10 11 10 11 11 8 8 9 10 10 9 8 7 8 6 2 6 6 8 6 5 6 7 10 14 11 9 7 3 1 2 3 3 2 2 3 2 1 1 0 1 3 2 2 3 3 4
35 33 35 34 34 34 32 32 34 35 34 33 32 31 31 29 28 30 30 28 27 25 25 25 22 19 18 17 17 17 17 17 16 16 16 15 14 13 12 12 12 12 9 6 6 8 9 9 8 7 6 6 7 6 8 6 9 9 8 7 5 9 15 14 11 10 7 7 6 5 6 5 4 4 3 3 2 1 2 4 4 3 4 3 4
39 37 37 36 34 34 34 34 35 37 37 34 33 34 32 29 29 30 29 29 28 27 27 27 24 21 20 20 21 21 19 20 20 18 16 15 15 14 13 12 13 11 7 6 8 8 9 8 6 5 4 4 6 9 8 4 6 7 9 11 10 9 14 15 13 12 11 11 9 6 5 3 3 3 3 3 1 0 2 4 4 4 4 2 3
42 41 39 36 34 35 35 36 36 38 38 35 35 35 32 29 30 30 30 30 29 28 28 27 27 26 25 25 25 24 22 21 21 19 17 16 16 16 15 13 12 10 8 8 9 8 8 7 5 4 3 3 4 6 6 6 6 7 9 12 13 10 10 11 12 13 14 13 10 8 5 2 1 2 2 3 3 3 5 4 4 5 5 3 2
41 42 40 35 33 36 38 39 39 40 39 35 36 37 33 30 32 31 31 31 29 29 27 25 27 29 28 26 25 26 24 19 18 19 17 16 16 17 16 12 9 9 9 9 9 8 7 6 4 4 2 3 4 5 7 9 9 10 11 13 14 12 8 6 8 11 13 14 13 11 8 4 4 5 4 4 4 5 7 7 6 6 7 6 4
41 41 42 37 36 38 39 41 41 42 41 38 37 38 35 30 31 31 30 30 30 29 27 25 28 30 28 26 25 25 23 18 17 18 16 16 17 17 13 9 8 10 11 9 7 7 7 6 4 3 3 4 6 8 10 10 10 10 11 11 13 13 10 8 8 9 9 10 10 11 9 7 8 9 7 5 3 5 9 9 8 7 6 5 6
45 42 42 41 40 39 40 41 41 41 40 39 37 37 35 31 30 30 28 29 31 29 26 27 28 28 27 27 24 21 19 17 17 17 17 17 17 15 11 10 12 13 12 7 3 4 5 6 5 5 5 7 9 10 10 10 10 10 11 10 10 11 11 11 11 10 9 8 7 6 5 5 8 10 9 8 3 4 8 10 7 8 8 6 6
44 42 41 41 41 39 39 39 40 40 38 37 37 36 36 33 31 29 27 28 30 28 27 28 28 27 26 25 22 20 19 18 18 18 19 18 16 14 13 14 16 15 11 5 3 5 7 6 7 7 8 10 11 10 10 11 11 11 11 10 10 10 10 10 11 11 10 10 10 8 7 6 6 8 9 9 4 1 3 6 6 9 9 7 6
38 37 38 39 37 36 37 38 38 39 38 36 36 37 39 35 31 30 29 28 28 27 28 29 28 27 25 23 22 23 23 21 20 19 19 18 17 16 15 16 15 14 10 10 10 9 12 10 8 8 10 11 12 11 11 12 12 11 10 10 10 11 10 9 9 10 10 11 11 11 11 9 8 8 8 9 6 3 1 0 4 7 8 7 6
36 35 35 36 36 34 37 39 38 38 38 37 37 40 41 36 32 32 31 30 28 27 28 29 29 27 25 24 24 25 25 23 21 19 19 19 19 18 18 17 16 13 11 11 15 13 11 10 10 10 11 13 13 12 12 12 12 12 11 11 11 12 11 10 10 10 10 11 11 10 10 10 9 8 9 9 8 6 4 2 2 4 4 6 7
35 37 37 39 38 35 37 40 39 37 38 39 38 40 41 37 35 35 34 33 30 28 29 29 29 27 26 25 26 26 25 23 21 19 19 20 20 19 19 19 16 12 10 11 12 10 7 8 11 12 13 14 14 12 12 13 12 12 12 12 12 11 11 11 11 11 11 11 10 10 9 9 8 7 8 8 8 8 8 6 3 1 1 3 6
34 36 38 39 38 36 37 39 39 38 38 39 39 40 39 38 38 37 35 34 31 30 30 29 29 28 26 26 26 27 25 23 21 19 19 20 20 20 19 19 15 11 10 11 9 7 7 8 11 14 14 13 13 13 13 13 12 12 12 12 12 11 11 10 10 10 10 10 10 9 9 8 7 7 6 6 6 6 7 7 5 3 2 2 3
36 37 37 39 37 36 38 39 38 38 39 38 38 40 39 38 38 37 35 34 32 32 31 29 29 28 27 27 27 27 25 22 20 19 19 21 20 19 19 16 12 10 9 9 7 7 8 8 10 13 13 13 13 13 14 14 14 13 13 12 12 11 11 10 10 9 9 9 9 9 8 8 7 6 5 5 5 5 5 5 3 4 4 1 1
38 39 39 39 37 37 39 39 37 38 40 39 39 39 38 39 39 37 35 34 32 33 32 31 30 29 28 28 27 26 24 22 20 19 20 20 19 19 17 13 11 9 7 8 8 10 10 9 9 12 12 13 13 14 14 14 14 13 13 13 12 12 11 10 10 10 9 9 9 8 7 6 6 5 4 5 5 6 6 6 4 3 4 2 0
44 42 40 41 39 39 40 39 38 40 41 40 41 40 38 38 39 37 36 34 33 32 32 32 31 30 29 28 27 26 24 22 21 20 20 19 17 17 14 12 11 10 9 11 10 10 10 9 10 12 13 14 15 15 15 15 14 14 14 14 13 12 12 11 11 11 10 9 9 8 7 6 6 5 5 5 6 7 6 7 6 5 4 2 1
44 41 41 44 43 41 40 39 40 42 41 39 40 40 38 36 36 38 38 35 34 33 32 33 33 32 31 30 28 26 25 23 21 20 20 18 17 17 16 16 15 10 10 12 11 10 11 11 12 14 14 15 16 16 16 16 15 15 14 14 13 12 12 12 11 11 10 9 8 8 7 6 6 6 6 6 6 7 7 6 6 7 6 5 3
43 42 43 44 44 44 42 40 39 40 39 37 35 36 37 35 34 37 38 35 34 34 32 33 33 33 32 30 29 27 26 24 21 20 20 19 19 19 19 19 15 9 9 12 11 11 13 14 15 15 15 16 16 16 17 16 16 15 14 13 13 12 12 12 11 10 10 9 9 8 8 7 7 7 7 6 5 5 6 6 5 6 7 7 6
44 48 47 45 45 45 43 41 39 37 37 35 34 34 36 37 35 36 37 35 34 34 34 35 33 32 32 31 30 28 26 25 23 21 20 19 20 21 19 16 12 8 10 14 12 11 14 16 16 16 16 16 17 17 17 17 16 15 14 14 13 13 12 12 11 10 10 10 9 9 8 8 8 8 7 6 6 6 6 5 5 6 6 7 8
43 47 48 47 46 43 41 41 39 36 34 33 35 36 35 36 36 36 37 36 35 34 34 35 33 31 31 31 31 29 28 27 25 22 21 20 21 21 18 14 10 8 11 14 14 13 14 16 16 16 17 16 17 18 17 17 16 15 15 14 14 13 12 11 11 11 11 10 9 8 7 7 7 8 7 5 5 6 5 5 4 4 4 6 9
43 45 46 46 45 41 38 39 39 37 35 33 35 36 34 35 37 37 37 37 37 36 35 35 34 32 30 31 31 30 29 29 26 23 21 20 20 20 18 14 11 9 9 13 16 16 16 16 16 17 17 16 18 18 17 17 17 16 16 14 14 13 12 11 11 11 10 9 9 8 7 6 6 6 6 5 4 4 4 3 2 3 4 6 9
43 43 43 43 42 40 36 37 38 38 38 36 36 36 35 36 38 39 39 38 37 37 36 35 35 34 32 32 32 31 31 30 28 26 23 21 20 20 19 16 13 10 11 15 17 17 17 16 16 17 17 17 18 18 17 18 17 16 15 14 14 12 12 11 11 11 10 9 9 8 7 7 6 6 5 5 4 2 3 2 2 3 4 6 8
41 41 41 39 39 38 36 37 37 38 40 39 38 36 36 38 39 38 39 38 37 38 38 36 36 35 33 32 33 33 32 31 29 27 25 22 21 22 20 18 14 10 11 17 18 18 17 17 17 17 17 17 18 18 18 18 17 15 15 14 13 12 11 11 11 11 10 10 9 8 8 7 7 6 5 5 4 1 1 1 2 3 4 6 8
37 36 37 36 36 37 36 36 36 38 39 39 39 37 36 38 39 38 38 38 38 39 38 36 36 36 33 33 34 34 33 32 29 28 27 24 23 23 21 19 16 11 13 19 19 18 18 17 17 17 17 18 18 18 18 18 17 16 15 14 13 12 12 11 12 12 11 10 10 9 8 8 7 6 5 4 3 1 0 0 1 3 5 7 9
37 35 35 35 36 37 36 35 36 37 37 37 39 38 36 38 40 38 39 39 39 39 38 36 36 37 35 35 35 35 34 32 30 29 28 26 25 24 23 21 17 13 16 20 20 19 19 18 17 17 17 18 17 17 18 17 17 16 15 14 13 13 13 13 12 12 11 11 10 9 8 8 7 5 4 3 3 1 1 1 3 4 6 8 10
38 37 37 35 36 38 37 36 37 37 36 37 40 38 35 39 41 39 39 40 39 38 37 36 36 36 35 35 36 36 35 32 31 31 30 27 26 25 24 22 18 16 18 20 21 20 19 19 18 17 16 16 16 16 16 16 16 16 15 14 14 14 14 13 11 11 11 11 10 10 9 7 6 5 3 3 2 1 1 3 4 6 8 9 11
36 37 38 37 37 38 37 36 37 36 35 36 38 36 34 38 41 40 39 40 40 39 36 35 35 35 35 36 37 36 33 32 33 33 30 27 27 26 24 21 18 18 20 21 21 22 20 19 18 17 17 16 17 17 16 16 16 15 15 14 14 14 13 12 11 11 11 11 10 10 9 6 5 4 3 2 2 1 2 4 5 7 9 11 12
28 32 37 39 37 37 37 36 36 36 36 35 35 36 35 36 41 42 40 39 40 39 36 35 35 36 36 37 36 35 32 32 33 32 30 28 28 26 23 20 20 21 21 21 22 22 22 21 20 20 20 19 19 20 19 19 18 18 17 16 14 13 13 13 12 11 11 11 11 10 7 6 6 5 3 3 2 2 3 5 6 8 10 11 13
22 27 35 37 35 35 36 36 36 37 39 37 35 36 37 37 41 43 41 40 40 39 37 35 35 35 36 36 35 35 34 34 33 32 31 31 30 26 23 21 22 22 21 22 23 23 23 24 24 24 23 21 21 21 22 21 21 19 17 16 15 14 13 13 12 11 11 11 10 9 7 6 6 5 3 4 3 3 4 6 8 9 10 11 13
23 27 32 32 31 33 35 35 37 38 39 38 36 37 38 36 38 42 42 40 39 39 38 37 35 35 36 36 36 37 37 35 34 33 33 33 30 25 23 22 23 22 22 24 26 26 26 27 26 23 20 20 21 23 23 22 21 19 17 16 15 14 13 12 12 11 10 10 9 8 7 7 6 5 5 5 4 3 5 7 8 10 11 12 15
22 25 29 30 29 32 35 36 37 37 37 36 35 36 37 37 39 43 43 40 39 40 39 37 35 35 36 37 37 37 36 35 34 34 34 32 28 24 23 23 24 24 25 27 28 28 28 28 26 19 18 21 24 25 24 22 20 19 18 17 16 15 14 12 11 10 8 8 9 9 7 7 7 6 6 5 3 3 5 7 9 10 11 13 16
25 26 28 30 31 32 34 36 36 36 37 36 35 35 35 37 40 43 41 39 39 40 39 37 36 35 36 36 37 36 35 35 35 33 33 32 29 26 25 25 26 26 26 26 28 28 29 30 26 18 18 23 25 24 23 23 22 21 19 17 15 14 13 12 11 9 6 7 10 10 8 7 6 6 5 4 4 5 6 8 10 11 11 13 15
25 28 28 31 33 32 33 36 36 36 37 35 32 33 34 36 40 42 40 38 39 39 39 37 35 34 35 34 34 35 35 36 35 33 34 32 30 28 27 27 27 25 25 27 29 30 30 29 25 20 19 23 25 24 24 24 23 22 20 18 15 12 13 12 10 9 10 12 14 11 8 6 7 7 5 4 4 5 7 8 10 11 11 12 13
22 26 29 31 32 31 33 37 37 36 35 34 32 32 34 36 39 41 39 39 40 40 39 37 34 33 33 33 33 35 37 37 35 33 34 33 31 30 29 28 26 25 25 27 30 31 30 28 26 22 21 22 24 25 25 24 23 23 22 20 18 15 14 13 12 13 17 18 16 12 8 7 9 10 6 4 5 6 7 9 10 10 10 9 10
23 26 27 30 31 33 36 38 37 35 34 34 35 34 34 34 36 39 39 38 38 37 36 35 34 34 33 31 32 36 37 37 35 35 35 34 33 32 29 28 26 24 24 25 27 30 30 28 27 25 22 22 24 25 24 22 23 24 23 22 20 17 14 13 15 18 19 17 15 14 12 12 13 12 7 5 6 6 7 9 9 9 9 9 8
23 25 24 26 30 35 38 37 36 35 33 34 37 37 35 33 34 38 39 37 35 33 33 34 33 32 32 32 33 35 36 36 35 35 35 35 34 32 30 29 27 25 24 23 25 28 29 27 26 24 22 22 23 23 22 22 23 24 24 25 22 18 15 15 18 18 15 14 15 14 13 13 13 12 8 6 6 7 7 8 9 9 10 9 8
21 24 24 28 33 37 38 36 35 34 33 34 36 38 36 36 37 39 39 38 36 34 34 34 31 29 30 30 31 32 33 34 34 33 35 35 33 31 30 29 28 25 23 23 24 26 26 24 23 23 23 22 22 22 21 21 22 23 24 26 24 19 16 16 17 15 12 13 14 13 12 13 13 9 6 6 7 7 7 8 9 10 10 10 9
19 23 27 33 36 37 37 36 34 35 35 34 34 35 34 35 38 39 39 38 36 35 34 32 30 31 30 29 29 30 31 33 32 30 31 32 30 29 29 29 27 24 22 22 24 25 24 22 22 23 22 21 22 22 22 21 22 23 24 25 25 19 13 12 12 12 11 13 14 13 12 13 12 8 6 7 7 7 8 9 10 11 11 10 9
16 22 28 33 34 35 36 35 33 36 38 35 32 33 33 33 34 35 35 35 35 35 35 33 33 34 31 29 29 29 29 30 30 28 29 29 28 28 28 28 25 22 21 22 23 23 22 22 22 23 22 23 23 23 22 21 21 22 23 24 24 19 12 9 10 11 11 12 14 13 12 13 12 9 8 9 8 8 8 9 10 11 11 10 9
16 22 28 31 33 33 32 31 30 34 36 35 34 35 34 32 32 31 31 32 32 33 34 35 34 32 29 30 30 27 27 30 31 29 29 29 29 29 28 27 25 22 21 21 21 21 21 22 23 23 23 26 27 25 21 21 22 22 22 23 23 20 16 12 12 12 12 13 14 13 11 11 12 10 9 9 8 8 8 9 10 10 10 9 8
22 25 26 29 32 30 27 28 30 33 35 33 33 34 31 29 30 29 30 32 32 32 33 34 33 30 29 30 30 28 29 32 32 31 31 31 30 29 27 27 25 22 21 23 24 24 25 25 25 25 24 27 29 26 21 21 23 23 23 23 23 22 20 17 15 13 12 12 13 13 11 10 10 10 9 8 9 9 9 9 9 9 9 7 7
28 28 26 27 28 27 26 28 31 34 34 31 31 31 30 29 29 29 30 33 35 36 36 34 33 33 31 27 27 29 31 31 30 30 30 30 29 28 27 27 25 24 24 27 28 27 26 25 24 23 24 27 29 25 21 22 23 23 23 24 24 23 21 19 17 14 11 12 14 14 13 12 11 10 9 9 9 9 9 9 8 7 8 6 6
30 28 26 26 26 25 26 28 31 34 33 30 30 31 30 29 27 27 30 34 34 34 34 33 34 34 31 27 27 29 29 29 29 29 29 28 27 28 28 28 27 27 28 29 27 25 25 24 23 22 24 28 28 24 20 21 23 23 23 24 25 25 23 21 19 17 15 15 16 16 16 16 14 12 11 10 10 9 8 8 7 7 7 6 5
29 27 25 24 25 26 26 28 31 33 32 30 30 31 30 29 27 27 31 33 33 32 32 32 32 33 33 31 31 30 29 29 29 27 26 27 28 28 29 29 29 30 30 27 24 22 22 22 23 24 26 27 26 23 21 22 22 23 23 24 25 26 25 23 21 21 20 19 19 19 18 18 16 13 12 11 10 8 7 6 6 6 7 7 6
28 27 25 24 24 26 27 27 29 30 30 30 29 29 29 28 28 29 31 31 32 32 29 26 27 30 33 34 33 32 31 30 28 26 25 26 27 28 29 30 30 30 28 25 23 22 22 24 24 25 25 24 25 24 23 23 23 23 25 25 26 26 25 24 24 23 22 20 20 21 20 19 16 13 12 11 9 7 6 6 6 6 7 7 7
27 27 26 25 24 25 26 26 26 27 27 28 27 26 28 28 28 30 31 30 31 31 28 26 27 29 32 34 34 34 33 31 28 27 26 26 27 27 29 30 30 30 27 24 24 24 26 26 25 24 22 22 24 25 24 24 24 25 25 26 26 26 26 25 25 25 24 22 22 22 21 19 17 14 12 11 9 7 6 7 7 7 8 7 8
28 26 25 25 23 23 24 24 23 24 25 25 24 24 27 28 28 30 31 31 33 33 32 32 30 27 28 29 29 30 31 32 30 28 27 27 27 27 28 29 29 29 27 26 26 27 27 27 25 23 22 23 25 26 25 25 25 25 26 26 26 25 25 25 25 26 25 24 23 22 20 19 17 15 13 11 10 8 5 7 8 9 9 9 11
28 25 23 25 25 24 24 22 21 22 22 22 23 23 24 25 27 29 30 32 34 35 34 34 31 27 25 25 23 22 25 28 30 29 27 27 26 27 29 29 27 27 27 26 25 25 26 26 25 24 25 26 27 26 24 23 23 24 24 24 24 24 24 24 24 25 26 26 24 22 21 19 17 15 13 11 9 6 6 9 9 8 7 9 11
27 23 22 24 26 27 26 22 21 20 19 20 21 20 20 23 26 27 29 33 36 35 35 33 31 29 28 26 24 23 22 24 27 28 28 28 27 27 27 26 26 26 26 24 22 22 23 24 25 25 26 26 25 23 21 20 21 22 21 21 21 21 22 22 22 23 25 26 25 22 20 18 16 14 13 11 8 7 8 11 10 9 10 12 12
21 19 18 19 22 28 29 25 23 21 18 18 18 18 21 25 26 25 29 32 33 34 35 32 30 30 30 29 28 27 24 24 26 27 29 30 29 27 25 24 25 25 24 23 21 20 21 23 24 24 24 22 20 19 20 19 19 19 20 20 20 20 20 20 21 22 23 25 24 21 19 17 16 15 13 12 11 10 11 13 13 13 13 13 12
Wind_Direction
189 188 188 186 183 190 194 191 195 195 186 186 191 187 187 188 182 179 180 183 188 191 192 192 191 193 198 200 198 199 202 205 209 211 213 223 227 216 212 206 183 174 165 164 173 177 190 211 218 221 225 227 226 211 208 224 231 223 232 198 168 161 160 176 212 233 267 281 308 352 35 88 10 279 268 293 311 324 307 311 313 320 335 334 329
183 183 186 187 183 188 194 192 195 195 188 188 191 189 188 188 182 179 182 186 189 192 193 193 192 192 196 197 198 200 203 207 212 214 214 215 217 206 201 207 188 179 185 180 177 178 189 208 221 220 208 213 232 229 225 227 212 225 232 184 170 160 163 179 205 233 273 292 357 5 37 35 344 288 265 286 288 271 294 316 303 311 322 318 330
173 179 185 188 187 189 193 192 194 196 191 189 192 191 188 187 184 182 184 188 190 189 192 194 192 193 196 193 193 198 203 205 207 209 209 207 208 204 200 201 199 202 202 198 199 198 201 214 229 233 218 210 205 228 264 222 181 203 215 190 182 169 172 179 188 200 221 261 316 310 264 283 301 267 262 207 196 197 353 337 324 322 315 325 6
171 177 183 187 190 192 194 193 192 194 192 190 191 190 189 189 185 183 186 189 190 187 190 192 189 191 192 186 186 194 200 201 201 206 209 210 210 209 209 206 211 220 218 215 226 222 215 217 223 230 234 217 175 189 246 214 178 191 189 183 166 160 177 187 197 196 177 185 206 232 246 234 221 237 233 190 168 67 25 352 333 324 318 347 23
175 178 184 186 190 192 193 193 192 192 193 191 191 190 189 190 187 186 188 191 193 191 193 194 190 186 182 182 189 195 200 203 204 207 210 213 214 211 210 213 221 225 221 227 235 224 213 211 217 219 231 237 189 196 222 193 171 186 179 174 161 167 193 200 209 209 196 197 197 199 218 218 219 230 213 191 169 82 353 348 339 335 334 2 32
180 182 186 186 189 191 190 192 192 193 194 193 193 191 189 189 190 189 189 192 195 194 197 199 193 185 181 187 194 195 199 204 206 209 210 211 213 210 208 210 217 216 209 222 231 221 207 203 214 227 226 230 216 207 201 180 181 185 180 178 173 184 207 208 211 214 216 221 212 204 209 186 159 183 198 199 210 264 292 306 327 347 354 13 20
181 182 185 185 188 190 190 194 196 196 197 195 194 193 191 191 192 192 191 193 196 196 198 194 185 183 186 192 197 198 200 202 206 213 214 211 212 212 211 208 207 211 213 224 235 226 209 197 205 230 239 227 225 217 205 203 203 195 192 193 190 194 203 203 203 207 218 228 228 232 242 234 185 182 200 206 221 264 282 288 300 325 355 21 26
175 179 183 185 189 191 193 196 198 199 198 195 196 196 194 193 193 194 193 194 198 200 197 187 182 186 191 194 196 201 204 205 207 213 212 211 216 214 208 202 202 217 223 223 230 225 205 195 204 222 229 228 226 224 219 217 216 210 210 209 205 203 197 188 188 194 210 221 227 239 245 230 198 190 193 190 223 269 266 271 289 303 329 6 14
176 182 186 187 189 191 194 195 196 197 196 196 198 200 197 192 193 195 195 196 200 202 194 185 187 192 194 195 196 200 207 208 206 209 211 213 217 209 193 199 212 222 229 217 215 246 220 199 209 216 217 228 235 235 229 223 220 216 218 219 213 210 207 202 195 190 193 190 190 207 215 205 199 200 206 209 232 285 250 246 275 306 313 318 335
178 185 186 188 189 189 191 192 193 195 196 195 195 199 200 195 194 195 196 198 199 198 190 185 191 195 195 196 196 196 200 202 201 207 213 212 210 199 188 205 218 223 223 177 109 288 259 216 216 222 221 234 243 239 226 219 219 217 217 217 210 207 211 214 205 197 198 193 185 179 170 171 189 201 211 212 217 311 235 234 278 304 303 299 317
174 179 181 184 186 186 187 187 191 196 197 196 195 200 202 197 195 196 197 199 197 194 188 186 193 196 196 194 194 197 198 200 204 208 210 205 199 195 197 211 220 224 214 161 156 225 243 221 220 230 226 235 242 234 221 215 215 214 212 209 201 196 197 202 203 204 207 206 201 197 190 189 197 203 204 195 190 192 151 321 298 295 288 291 318
169 173 176 179 181 183 185 185 190 195 196 196 196 200 200 196 196 199 200 199 197 192 188 188 194 196 196 195 197 203 204 206 213 213 206 200 196 196 202 213 221 226 222 191 184 208 232 220 219 232 228 230 235 227 218 215 213 209 201 195 192 189 187 190 195 200 204 206 207 209 207 207 212 212 204 196 195 189 163 151 281 288 279 293 310
171 171 173 177 180 181 183 185 189 192 193 193 195 199 199 196 197 200 200 198 194 191 189 191 195 195 195 198 201 206 209 212 216 214 205 201 199 197 202 213 221 221 223 223 210 207 231 225 217 229 231 228 229 222 215 213 208 203 196 189 188 187 189 190 192 196 197 198 202 207 209 207 211 209 199 201 203 192 186 184 193 244 265 307 297
172 171 173 175 180 181 182 185 188 191 192 191 194 199 198 194 197 202 201 198 194 191 191 192 195 195 196 199 202 207 211 213 216 214 207 205 202 198 205 215 219 216 217 231 224 202 226 232 218 226 230 224 221 214 209 207 200 196 191 186 185 184 188 188 189 194 193 194 198 199 200 195 193 195 191 197 197 189 195 192 180 179 160 332 298
169 170 174 175 181 183 183 185 189 191 191 191 193 198 197 191 194 200 199 196 193 191 192 191 193 195 196 199 202 208 212 213 216 216 210 208 202 199 206 211 212 214 215 226 218 191 212 231 223 223 221 214 212 208 205 202 196 192 187 184 185 183 185 184 183 188 189 193 193 188 188 183 177 179 179 182 175 162 160 156 158 159 134 30 291
165 170 175 178 182 184 184 185 189 191 191 191 191 195 197 192 191 195 194 193 192 190 190 190 192 194 195 198 203 207 209 211 217 216 209 207 202 200 203 200 203 206 201 216 211 193 206 225 217 210 206 204 204 202 202 199 193 189 185 185 185 183 184 182 180 185 186 186 184 177 173 168 168 170 166 164 156 147 138 123 111 125 118 78 138
164 170 174 179 183 185 186 186 189 191 191 193 192 192 196 195 193 191 189 192 192 189 189 191 193 194 196 200 203 205 207 209 213 210 204 202 196 196 194 189 199 197 189 213 219 202 207 212 200 196 196 198 199 198 196 193 189 187 185 186 187 186 186 183 182 183 182 180 175 170 165 161 161 156 151 156 151 139 124 107 99 97 91 90 144
169 172 174 180 185 186 186 187 192 192 192 196 194 191 194 195 193 188 187 191 190 187 189 191 193 196 198 200 200 203 206 207 208 205 202 198 186 184 186 188 201 200 193 214 223 209 200 194 193 194 194 197 198 195 193 191 189 187 187 188 188 189 188 187 186 183 180 177 170 163 162 159 156 153 150 155 156 141 118 99 92 81 60 55 63
169 172 173 180 187 188 186 186 192 193 193 196 193 190 194 194 191 188 188 190 188 186 188 191 195 198 200 201 200 202 203 201 201 200 200 195 182 183 190 193 199 200 201 213 213 200 191 191 196 195 195 198 197 194 193 192 190 189 189 188 188 189 188 185 185 181 174 168 164 162 162 159 155 155 153 148 145 133 114 97 85 67 36 23 25
169 171 174 180 186 188 187 184 188 193 194 194 192 191 192 192 191 189 188 190 189 188 190 191 195 199 201 200 199 200 198 195 198 198 196 191 183 188 198 200 198 200 210 209 197 188 190 195 197 194 196 199 195 194 194 192 190 189 189 188 187 187 186 184 181 176 170 167 171 174 172 172 166 156 149 140 129 113 96 85 68 49 17 359 3
167 170 176 182 186 187 186 184 185 191 193 194 194 193 191 190 190 188 188 192 190 189 192 192 193 199 201 198 198 197 193 192 196 198 196 192 189 195 202 204 203 214 218 201 185 183 190 195 196 194 198 199 195 195 195 191 190 189 188 187 186 185 183 182 178 176 175 175 179 183 179 182 179 162 152 145 136 117 86 66 49 33 9 351 351
165 171 178 181 183 184 183 182 183 188 192 194 195 195 193 189 188 187 189 193 193 190 192 192 193 197 198 197 198 197 193 194 196 197 199 201 199 199 205 206 204 216 215 189 180 184 189 193 195 196 199 198 196 197 194 192 192 191 189 185 185 187 183 180 180 180 184 184 185 185 178 174 173 163 150 143 143 127 97 68 39 17 6 355 345
165 174 180 180 182 183 183 181 183 188 193 195 195 195 194 190 188 188 189 192 193 191 191 194 193 194 196 197 197 196 197 199 199 198 202 207 202 197 205 209 207 217 207 184 182 187 189 193 196 196 199 197 197 197 195 194 195 193 189 186 188 189 184 183 185 184 185 188 188 184 178 173 169 165 155 145 148 139 107 85 40 9 355 351 344
166 170 174 176 177 179 181 181 183 189 192 195 197 196 193 190 189 190 188 189 191 191 192 194 193 193 196 197 195 196 199 201 200 199 203 206 201 199 206 208 210 221 202 185 186 191 191 193 194 195 197 196 198 198 196 197 196 192 190 190 193 189 182 184 187 185 186 189 190 184 180 182 176 174 175 157 149 150 105 87 28 2 347 345 345
165 165 165 169 173 175 180 182 184 190 193 195 197 195 194 192 190 190 188 188 191 192 193 194 193 194 194 194 195 197 199 202 201 199 202 204 201 204 209 207 210 213 196 188 190 190 189 189 190 194 195 196 198 197 197 198 194 191 192 193 191 183 179 186 189 188 189 189 190 190 187 190 188 183 183 165 151 163 151 57 1 354 348 344 345
160 161 162 170 177 179 182 184 187 191 192 194 195 194 195 194 191 190 190 189 191 192 193 193 192 192 191 193 197 198 200 204 203 199 200 202 202 207 209 207 209 205 194 192 188 185 186 186 187 192 193 196 199 196 197 198 192 191 192 190 187 182 184 194 195 192 194 195 194 196 197 197 199 196 189 179 170 184 286 334 348 346 341 341 342
160 162 165 174 181 184 185 186 189 192 192 193 194 193 194 194 192 191 190 191 191 193 193 192 191 192 194 197 199 201 203 204 201 199 200 201 203 207 207 206 206 199 195 193 185 183 186 185 186 187 187 193 196 193 195 195 191 191 190 188 189 190 192 197 197 194 198 200 199 202 206 203 203 209 204 194 195 237 311 329 341 340 338 341 343
160 165 172 179 182 184 186 186 189 191 192 194 194 192 194 195 194 192 191 192 192 192 192 191 192 195 197 197 198 201 203 202 200 200 200 201 204 206 204 203 201 196 196 192 186 187 186 181 181 180 180 188 193 193 196 197 194 192 193 194 195 196 196 192 192 199 200 201 202 206 209 204 201 214 222 222 246 283 317 332 335 336 338 341 343
161 167 177 184 186 185 186 187 189 190 190 191 191 192 195 196 194 192 192 193 192 192 193 194 194 195 195 197 200 202 201 200 200 200 200 203 206 203 200 199 196 194 196 191 188 189 183 176 178 182 188 198 203 203 204 202 201 200 200 202 198 197 198 191 192 203 203 202 208 210 206 203 203 209 225 238 257 283 310 327 330 335 339 338 340
168 172 179 184 186 186 186 188 189 190 191 191 189 191 194 194 194 193 193 194 193 192 194 194 192 192 194 197 200 200 199 199 201 201 201 204 203 198 195 196 194 195 195 191 189 187 181 181 187 192 200 211 214 211 207 205 204 203 202 203 197 194 198 196 196 205 204 200 211 216 205 204 212 213 231 254 265 292 315 327 329 332 334 334 340
181 182 185 185 185 186 187 190 191 191 192 191 190 191 192 193 194 194 193 194 192 191 193 193 189 189 193 196 198 199 199 199 201 200 201 202 198 194 194 194 195 197 196 193 194 190 187 193 200 204 214 222 217 209 206 206 205 201 199 199 196 193 196 197 197 205 205 198 208 223 211 205 218 220 227 247 259 297 319 326 327 325 328 337 345
188 188 187 186 188 190 189 189 191 191 190 189 190 191 192 193 194 193 192 192 190 189 190 190 188 189 193 197 199 200 199 199 200 200 201 199 192 189 194 195 199 204 201 200 202 199 196 200 206 213 224 223 215 209 207 205 203 200 198 196 194 193 192 194 198 202 206 203 211 226 224 217 225 224 227 244 263 300 315 322 321 320 331 343 344
196 194 188 186 190 193 190 189 189 190 190 189 190 191 192 192 191 190 190 190 188 187 187 188 186 186 190 195 199 201 200 199 199 199 199 196 189 188 196 202 208 210 207 207 209 205 202 203 208 220 227 218 212 211 209 205 201 200 199 191 188 194 192 190 194 191 194 219 228 235 240 237 236 237 242 261 288 309 319 324 320 322 336 342 338
196 193 190 192 193 192 190 189 190 192 193 191 190 192 192 190 190 190 189 187 186 185 185 184 182 183 189 196 201 202 200 197 197 198 197 195 194 196 202 209 215 214 211 211 211 207 205 206 211 223 224 214 212 211 209 206 201 202 201 186 176 194 200 191 188 186 193 214 227 235 243 254 262 258 253 265 291 308 316 318 319 327 336 337 336
195 191 191 197 198 192 187 187 188 191 192 189 188 191 191 189 189 189 189 188 186 185 184 185 186 189 195 200 200 198 198 197 196 196 197 197 199 203 208 212 215 214 212 213 212 210 210 209 213 222 219 211 211 212 211 209 204 203 203 188 176 190 199 189 188 200 207 214 223 227 220 224 250 259 260 269 283 298 308 311 319 327 331 339 344
194 189 189 194 196 191 186 185 188 188 188 189 189 189 189 188 188 189 188 187 186 187 190 194 197 199 200 201 198 196 197 197 194 195 197 198 200 207 214 217 216 214 215 216 213 211 212 212 216 220 214 207 212 215 213 211 207 205 203 194 188 189 188 190 202 213 218 221 226 229 220 215 234 252 260 264 275 291 302 308 319 323 327 344 345
188 183 189 194 194 190 185 185 187 186 186 189 191 192 192 188 186 186 185 183 183 186 190 192 195 200 201 199 199 199 199 197 194 195 199 201 203 210 218 222 220 216 217 217 213 212 213 215 216 214 207 206 214 219 217 211 209 207 202 199 198 191 186 200 215 221 223 224 227 230 223 219 234 250 256 256 271 289 299 307 317 320 325 337 336
173 177 190 192 188 186 184 185 185 183 184 187 188 190 190 185 183 183 182 180 180 182 186 186 187 192 194 192 195 196 195 195 196 198 200 202 206 213 219 223 222 220 222 220 215 214 215 215 213 206 203 209 217 221 220 213 209 208 203 201 201 197 198 209 219 225 224 219 227 232 222 223 238 254 261 262 273 288 299 306 312 317 326 334 343
166 176 183 182 181 182 182 182 183 183 184 185 185 184 182 179 180 182 181 182 183 184 187 186 183 182 181 181 188 192 193 197 201 201 200 202 209 216 219 221 221 221 223 221 216 216 215 212 208 200 200 212 219 222 224 218 210 207 204 203 202 200 206 212 213 222 222 216 227 235 227 231 245 255 262 268 277 289 299 305 309 318 330 341 353
166 173 174 174 175 177 178 179 181 183 184 185 183 182 179 176 178 181 184 187 188 188 188 185 182 182 181 183 191 195 197 202 205 202 201 206 214 218 218 219 220 218 217 216 214 214 210 205 202 197 201 213 220 222 223 217 211 207 205 206 204 195 196 210 213 219 220 218 228 232 226 233 245 246 251 264 277 288 297 304 311 321 335 345 356
177 175 174 172 170 171 174 178 180 181 183 184 182 181 180 179 179 181 185 188 189 187 187 186 185 186 187 191 198 201 199 202 205 204 204 208 215 218 217 216 217 214 210 207 204 203 200 199 200 198 203 215 221 221 218 211 209 208 207 209 207 194 186 198 212 221 223 222 232 238 230 230 239 242 248 261 275 288 298 305 312 325 339 348 358
176 175 175 171 168 167 168 170 175 177 178 180 181 181 182 181 182 184 184 186 187 184 183 184 184 185 191 198 202 202 200 203 206 208 208 210 212 215 215 213 211 207 202 199 196 194 194 199 206 205 207 217 223 222 217 210 209 209 208 208 208 200 192 191 199 212 222 226 238 250 247 235 233 239 247 261 276 289 300 305 313 332 346 354 7
172 171 170 169 168 168 169 171 174 175 176 179 181 183 184 182 184 187 185 185 187 186 184 184 184 188 195 199 200 202 204 208 211 212 213 212 211 212 212 210 205 199 198 198 197 197 201 209 214 211 209 219 226 223 215 212 213 211 208 206 204 201 199 195 192 195 208 223 238 250 253 247 243 246 256 270 280 291 301 304 313 338 356 4 12
167 164 169 173 169 167 170 174 176 175 176 179 182 184 184 183 186 189 185 185 189 189 188 189 189 193 198 200 201 206 209 210 213 215 214 213 212 212 209 205 203 203 205 205 203 207 215 218 215 208 208 219 228 226 217 216 216 212 210 208 204 202 203 200 194 191 198 212 226 236 242 245 250 257 263 269 276 288 300 307 313 339 5 11 2
160 161 168 172 168 165 167 172 176 178 178 180 184 184 182 181 184 187 184 184 184 181 181 187 192 197 203 204 205 208 211 213 215 216 214 213 213 210 205 203 206 209 209 210 212 216 218 213 207 206 212 222 230 229 219 215 215 212 211 210 208 207 207 205 199 197 200 206 217 229 237 242 249 256 258 263 274 284 298 316 324 337 357 2 352
160 162 163 163 164 166 167 168 175 179 179 182 186 187 183 180 181 184 184 184 184 183 185 192 199 202 204 206 207 208 209 213 215 214 215 215 212 208 206 207 210 211 211 214 216 212 205 201 203 208 214 223 230 228 219 214 213 212 212 212 211 210 210 209 205 204 205 208 215 226 235 241 248 253 254 261 272 276 293 330 341 334 337 339 337
160 160 162 163 162 165 168 168 171 175 177 181 185 189 190 187 184 186 186 187 191 192 189 189 194 198 201 204 209 210 210 211 212 211 210 210 209 210 212 212 211 211 212 212 208 202 197 199 204 209 212 219 228 229 221 214 213 213 213 214 214 213 213 213 210 209 211 214 218 226 236 244 251 252 253 262 267 267 298 336 336 322 323 322 319
158 155 159 160 158 163 168 168 169 173 175 177 181 186 190 191 190 189 187 188 193 193 188 187 192 198 200 202 206 212 214 212 211 210 209 209 209 212 216 217 215 214 213 207 202 202 202 202 206 209 209 213 224 230 225 217 215 215 214 215 217 216 215 214 213 212 215 219 223 230 239 245 248 248 251 260 259 256 292 326 319 314 322 319 314
151 151 155 155 155 161 164 164 167 173 175 177 182 187 188 191 193 192 189 191 194 193 192 194 198 203 205 201 199 204 210 211 209 208 209 211 213 215 217 217 216 217 217 214 210 211 210 207 206 209 210 213 223 232 230 221 217 218 219 220 220 218 216 215 214 213 217 221 227 235 241 242 243 243 248 253 253 267 309 319 314 315 311 297 295
147 153 159 159 160 163 165 167 170 174 177 179 182 186 190 191 190 190 192 195 194 192 192 194 198 206 211 206 200 199 202 204 206 205 205 207 210 214 218 217 214 215 220 221 222 224 221 213 209 213 219 224 231 237 237 227 219 219 221 223 222 219 218 218 216 215 217 222 229 235 238 238 239 241 246 252 260 282 293 285 281 280 274 274 278
143 153 160 164 165 165 167 170 172 174 180 183 183 187 192 189 182 183 193 197 194 193 197 200 204 210 211 206 203 201 196 195 200 203 204 204 203 204 210 215 216 218 221 223 225 226 223 216 213 215 222 229 233 238 240 233 222 216 217 218 216 214 215 216 217 216 218 222 227 231 234 234 236 240 246 249 251 257 261 263 268 273 275 277 279